Regional Weather Roundup
Issued by NWS

Home | Current Version | Previous Version | Graphics & Text | Print | Product List | Glossary On
Versions: 1 2 3 4 5 6 7 8 9 10 11 12 13 14 15 16 17 18 19 20 21 22 23 24 25 26 27 28 29 30 31 32 33 34 35 36 37 38 39 40 41 42 43 44 45 46 47 48 49 50
000
ASUS45 KCYS 312110
RWRWY

WYOMING REGIONAL WEATHER ROUNDUP
NATIONAL WEATHER SERVICE CHEYENNE WY
300 PM MDT THU JUL 31 2014

NOTE:  "FAIR" INDICATES FEW OR NO CLOUDS BELOW 12,000 FEET
WITH NO SIGNIFICANT WEATHER AND/OR OBSTRUCTIONS TO VISIBILITY.

WYZ001-312200-
YELLOWSTONE NATIONAL PARK

CITY           SKY/WX    TMP DP  RH WIND       PRES   REMARKS
LK YELLOWSTONE   N/A     64  40  41 VRB3      30.45R
W YELLOWSTONE  NOT AVBL

$$
WYZ002>013-054>058-071-098>099-312200-
NORTHERN WYOMING

CITY           SKY/WX    TMP DP  RH WIND       PRES   REMARKS
JACKSON        MOSUNNY   79  43  27 SW7       30.30F
CODY           MOSUNNY   82  37  20 N9        30.20F
GREYBULL       SUNNY     90  31  12 SE7       30.12F
WORLAND        SUNNY     88  34  14 NW7       30.14F
SHERIDAN       MOSUNNY   90  37  15 W5        30.13F
BUFFALO        MOSUNNY   81  28  14 SE7       30.21F
GILLETTE       SUNNY     85  38  18 S6        30.17F
HULETT         FAIR      82  41  23 MISG      30.19
NEWCASTLE      FAIR      82  32  16 SW5       30.18

$$
WYZ014>020-022>026-101>103-312200-
CENTRAL WYOMING

CITY           SKY/WX    TMP DP  RH WIND       PRES   REMARKS
BIG PINEY      MOSUNNY   72  36  26 W5        30.37F
PINEDALE       CLEAR     73  34  23 S8        30.36F
DUBOIS         MOCLDY    77  32  19 E8        30.35F
LANDER         SUNNY     83  34  17 VRB5      30.24F
RIVERTON       SUNNY     79  34  19 VRB7      30.26F
CASPER         SUNNY     83  24  11 SE9       30.24F
DOUGLAS        SUNNY     82  33  17 VRB3G16   30.24F

$$
WYZ021-027>030-104>119-312200-
SOUTHERN WYOMING

CITY           SKY/WX    TMP DP  RH WIND       PRES   REMARKS
EVANSTON       SUNNY     73  43  33 NE13      30.34F
KEMMERER       MOCLDY    70  37  30 E10       30.39F
FORT BRIDGER   FAIR      73  42  32 N8G16     30.38F
ROCK SPRINGS   MOSUNNY   78  38  23 VRB7G17   30.33F
DIXON          FAIR      77  43  29 SW5       30.30F
RAWLINS        SUNNY     76  35  22 VRB7      30.33F
SARATOGA       FAIR      73  41  31 N7        30.34S
LARAMIE        MOSUNNY   71  41  33 CALM      30.36F
CHEYENNE       MOSUNNY   74  43  32 E6        30.30F
TORRINGTON     SUNNY     85  44  23 S8        30.18F
PINE BLUFFS    FAIR      75  41  29 E5        30.26F

$$



USA.gov is the U.S. government's official web portal to all federal, state and local government web resources and services.